TimeCET,TemperatureF,Dew PointF,Humidity,Sea Level PressureIn,VisibilityMPH,Wind Direction,Wind SpeedMPH,Gust SpeedMPH,PrecipitationIn,Events,Conditions,WindDirDegrees,DateUTC
12:00 AM,49,46,85,29.34,8,South,20.1,,,Rain,Rain,180,2014-01-01 23:00:00
12:25 AM,48.2,46.4,93,29.33,6.2,South,20.7,-,N/A,Rain,Light Rain,170,2014-01-01 23:25:00
12:55 AM,48.2,46.4,93,29.30,6.2,South,19.6,-,N/A,Rain,Light Rain,170,2014-01-01 23:55:00
1:00 AM,49,46,86,29.32,28,South,20.1,,,Rain,Rain,170,2014-01-02 00:00:00
1:25 AM,50.0,46.4,87,29.30,6.2,South,20.7,-,N/A,,Overcast,180,2014-01-02 00:25:00
1:55 AM,50.0,44.6,82,29.30,6.2,South,20.7,32.2,N/A,,Overcast,180,2014-01-02 00:55:00
2:00 AM,50,45,77,29.31,28,South,22.4,,,,Overcast,180,2014-01-02 01:00:00
2:25 AM,50.0,44.6,82,29.30,6.2,South,20.7,-,N/A,,Overcast,180,2014-01-02 01:25:00
2:55 AM,50.0,44.6,82,29.30,6.2,South,20.7,33.4,N/A,,Mostly Cloudy,180,2014-01-02 01:55:00
3:00 AM,51,45,73,29.31,28,South,22.4,,,,Overcast,180,2014-01-02 02:00:00
3:25 AM,51.8,44.6,76,29.30,6.2,South,20.7,-,N/A,,Overcast,180,2014-01-02 02:25:00
3:55 AM,51.8,44.6,76,29.27,6.2,South,19.6,-,N/A,,Overcast,180,2014-01-02 02:55:00
4:00 AM,51,45,74,29.29,28,South,20.1,,,,Overcast,180,2014-01-02 03:00:00
4:25 AM,51.8,46.4,82,29.27,6.2,South,17.3,-,N/A,,Overcast,180,2014-01-02 03:25:00
4:55 AM,50.0,44.6,82,29.27,6.2,South,20.7,-,N/A,,Mostly Cloudy,180,2014-01-02 03:55:00
5:00 AM,51,45,74,29.29,28,South,22.4,,,,Overcast,180,2014-01-02 04:00:00
5:25 AM,50.0,44.6,82,29.27,6.2,South,19.6,32.2,N/A,,Mostly Cloudy,190,2014-01-02 04:25:00
5:55 AM,50.0,44.6,82,29.27,6.2,South,18.4,-,N/A,,Mostly Cloudy,180,2014-01-02 04:55:00
6:00 AM,50,45,78,29.29,28,South,17.9,,,,Scattered Clouds,180,2014-01-02 05:00:00
6:25 AM,50.0,44.6,82,29.27,6.2,South,18.4,-,N/A,,Mostly Cloudy,180,2014-01-02 05:25:00
6:55 AM,50.0,44.6,82,29.30,6.2,South,15.0,-,N/A,,Mostly Cloudy,180,2014-01-02 05:55:00
7:00 AM,49,45,82,29.30,28,South,15.7,,,,Partly Cloudy,180,2014-01-02 06:00:00
7:25 AM,50.0,44.6,82,29.30,6.2,South,16.1,-,N/A,,Unknown,180,2014-01-02 06:25:00
7:55 AM,50.0,44.6,82,29.30,6.2,South,16.1,-,N/A,,Overcast,180,2014-01-02 06:55:00
8:00 AM,50,45,78,29.31,28,South,15.7,,,,Overcast,180,2014-01-02 07:00:00
8:25 AM,50.0,44.6,82,29.30,6.2,South,16.1,-,N/A,,Unknown,180,2014-01-02 07:25:00
8:55 AM,50.0,44.6,82,29.30,6.2,South,13.8,-,N/A,,Unknown,180,2014-01-02 07:55:00
9:00 AM,50,45,78,29.32,25,South,13.4,,,,Overcast,180,2014-01-02 08:00:00
9:25 AM,50.0,44.6,82,29.33,6.2,South,16.1,-,N/A,,Overcast,180,2014-01-02 08:25:00
9:55 AM,50.0,46.4,87,29.33,6.2,South,17.3,-,N/A,,Overcast,190,2014-01-02 08:55:00
10:00 AM,50,46,80,29.34,12,South,15.7,,,Rain,Light Drizzle,190,2014-01-02 09:00:00
10:25 AM,48.2,46.4,93,29.33,5.0,SSW,13.8,-,N/A,Rain,Light Rain,200,2014-01-02 09:25:00
10:55 AM,48.2,46.4,93,29.36,6.2,SSW,16.1,-,N/A,,Partly Cloudy,200,2014-01-02 09:55:00
11:00 AM,49,46,87,29.37,6,SSW,17.9,,,Rain,Heavy Rain,210,2014-01-02 10:00:00
11:25 AM,48.2,46.4,93,29.36,6.2,SW,19.6,-,N/A,,Scattered Clouds,230,2014-01-02 10:25:00
11:55 AM,48.2,44.6,87,29.39,6.2,WSW,17.3,-,N/A,,Overcast,250,2014-01-02 10:55:00
12:00 PM,49,45,82,29.41,10,WSW,15.7,,,Rain,Rain,240,2014-01-02 11:00:00
12:25 PM,48.2,42.8,82,29.42,6.2,WSW,16.1,-,N/A,,Overcast,250,2014-01-02 11:25:00
12:55 PM,48.2,42.8,82,29.44,6.2,West,18.4,-,N/A,,Partly Cloudy,260,2014-01-02 11:55:00
1:00 PM,48,42,75,29.46,18,WSW,15.7,,,,Partly Cloudy,250,2014-01-02 12:00:00
1:25 PM,48.2,44.6,87,29.44,6.2,WSW,15.0,-,N/A,,Mostly Cloudy,240,2014-01-02 12:25:00
1:55 PM,48.2,42.8,82,29.47,6.2,WSW,17.3,-,N/A,,Overcast,240,2014-01-02 12:55:00
2:00 PM,49,44,75,29.49,13,WSW,20.1,,,Rain,Rain,240,2014-01-02 13:00:00
2:25 PM,48.2,42.8,82,29.47,6.2,WSW,18.4,-,N/A,,Mostly Cloudy,240,2014-01-02 13:25:00
2:55 PM,48.2,42.8,82,29.50,6.2,SW,15.0,-,N/A,,Scattered Clouds,230,2014-01-02 13:55:00
3:00 PM,49,44,75,29.52,10,SW,15.7,,,,Partly Cloudy,220,2014-01-02 14:00:00
3:25 PM,48.2,42.8,82,29.50,6.2,SW,16.1,-,N/A,,Partly Cloudy,230,2014-01-02 14:25:00
3:55 PM,48.2,44.6,87,29.53,6.2,SW,17.3,-,N/A,,Partly Cloudy,230,2014-01-02 14:55:00
4:00 PM,48,44,79,29.55,10,SW,17.9,,,,Partly Cloudy,230,2014-01-02 15:00:00
4:25 PM,48.2,42.8,82,29.53,6.2,SW,17.3,-,N/A,,Partly Cloudy,230,2014-01-02 15:25:00
4:55 PM,48.2,42.8,82,29.56,6.2,SW,16.1,-,N/A,,Unknown,220,2014-01-02 15:55:00
5:00 PM,48,42,74,29.57,12,SW,13.4,,,,Partly Cloudy,220,2014-01-02 16:00:00
5:25 PM,48.2,42.8,82,29.56,6.2,SSW,12.7,-,N/A,,Partly Cloudy,200,2014-01-02 16:25:00
5:55 PM,46.4,42.8,87,29.56,6.2,SSW,13.8,-,N/A,Rain,Light Rain,200,2014-01-02 16:55:00
6:00 PM,47,43,81,29.59,12,SSW,15.7,,,Rain,Rain,210,2014-01-02 17:00:00
6:25 PM,46.4,42.8,87,29.56,6.2,SSW,16.1,-,N/A,,Mostly Cloudy,210,2014-01-02 17:25:00
6:55 PM,46.4,42.8,87,29.59,6.2,SSW,12.7,-,N/A,,Scattered Clouds,200,2014-01-02 17:55:00
7:00 PM,47,42,79,29.61,14,SSW,13.4,,,,Partly Cloudy,200,2014-01-02 18:00:00
7:25 PM,46.4,42.8,87,29.59,6.2,SSW,13.8,-,N/A,,Scattered Clouds,200,2014-01-02 18:25:00
7:55 PM,46.4,42.8,87,29.59,6.2,South,11.5,-,N/A,,Partly Cloudy,190,2014-01-02 18:55:00
8:00 PM,46,42,82,29.62,12,South,11.2,,,,,190,2014-01-02 19:00:00
8:25 PM,46.4,42.8,87,29.59,6.2,South,12.7,-,N/A,,Mostly Cloudy,190,2014-01-02 19:25:00
8:55 PM,46.4,41.0,81,29.59,6.2,South,13.8,-,N/A,,Unknown,190,2014-01-02 19:55:00
9:00 PM,46,42,79,29.62,14,South,13.4,,,,,190,2014-01-02 20:00:00
9:25 PM,46.4,41.0,81,29.59,6.2,South,15.0,-,N/A,,Unknown,190,2014-01-02 20:25:00
9:55 PM,46.4,41.0,81,29.59,6.2,South,15.0,-,N/A,,Unknown,190,2014-01-02 20:55:00
10:00 PM,46,41,77,29.62,14,South,15.7,,,,,190,2014-01-02 21:00:00
10:25 PM,46.4,41.0,81,29.59,6.2,South,13.8,-,N/A,,Unknown,190,2014-01-02 21:25:00
10:55 PM,46.4,41.0,81,29.59,6.2,South,12.7,-,N/A,,Unknown,190,2014-01-02 21:55:00
11:00 PM,46,41,76,29.62,16,South,13.4,,,,Scattered Clouds,180,2014-01-02 22:00:00
11:25 PM,44.6,41.0,87,29.59,6.2,South,11.5,-,N/A,,Unknown,180,2014-01-02 22:25:00
11:55 PM,44.6,41.0,87,29.59,6.2,SSE,11.5,-,N/A,,Unknown,160,2014-01-02 22:55:00